Find Starlink 4778

NORAD ID: 53836 Int'l Des: 2022-114 Owner: SPXS Country: US Constellation: starlink operational
LEOCIRCULAR

現在のビュー

3D地球を読み込み中...

About Starlink 4778

Starlink 4778 (NORAD 53836) is a starlink constellation satellite (v1.5) launched Sep 19, 2022 by SPXS of US. It operates in LEO, CIRCULAR orbit with a mass of 305.00 kg.

次回通過

Passes for default location (London). Set your location on the main map for personalized predictions.

高度履歴

Loading altitude history...

軌道要素

1 53836U 22114U 26263.91670139 .00007688 00000-0 25929-3 0 9999
2 53836 53.1601 112.2343 0001453 80.2937 328.4039 15.31696999 5845
Epoch: Sep 20, 2026 • Age: 9 hours

現在のステータス

高度 470.9 km
遠地点 / 近地点 N/A
速度 7.63 km/s
衛星直下点 22.73°N, 18.77°E
打ち上げ日 Sep 19, 2022
運用期間 4 years
タイプ internet

技術仕様

分類 Payload
質量 305.00 kg
乾燥質量 290.00 kg
長さ 0.20 m
スパン 9.00 m
形状 ? Box + pan
製造者 SPXS
バスタイプ Starlink
フェーズステータス In Orbit
所有者/国 SPXS/US

Most Searched